DELTA 1 DEB, 7060

Orbit data source: Space-Track

DELTA 1 DEB, 7060 is space debris in SSO originally from a launch on Tue, 06 Nov 1973 UTC launched from the Air Force Western Test Range (AFWTR). Debris objects in space refer to the collection of defunct objects orbiting the Earth. Examples of debris include non-operational satellites, rocket bodies, and fragments generated from explosions, collisions, or faulty payload assembly.

Loading next visibility...
Identifier
7060, 1973-086BC
Orbit
SSO
Country
Flag of USUS
Related business
Manufacturer
Unknown
Mission
Spacecraft
Bus & Motor
Unknown
Mass
Unknown
Launch date (UTC)
1973-11-06 (53 years ago)
Launch vehicle
Unknown
Launch site
Air Force Western Test Range (AFWTR)
Object type
Payload
Rocket body
Debris
Shape & HBR
Unknown shape, 0.2 m
Radar Cross Section
Medium (>0.1 m² and <1 m²)

Expand to show TLE details & history
Last TLE update: 18 hours ago

TLE from 18 hours ago
0 DELTA 1 DEB
1  7060U 73086BC  26262.90538375 -.00000020  00000-0  18332-3 0  9998
2  7060 102.1386 287.1136 0023014 290.0359 190.9529 12.44948283401085
Epoch: 2026-09-19T21:43Z
TLE epoch observation values (Epoch: 2026-09-19T21:43:45.155Z)
Latitude
57.07968°
Longitude
161.67297°
Altitude
1,512.823 km
Speed
7.106 km/s
True Right ascension
08h 25m 40s
True Declination
56° 56' 15"
Sunlit
Object was in daylight at epoch
Visualization orbit readout
Latitude
Unknown
Longitude
Unknown
Altitude
Unknown
Speed
Unknown
Apparent Right ascension
Unknown
Apparent Declination
Unknown
Sunlit
N/A
Visualization observer readout
Local Sidereal Time
08:48:37
Azimuth
Unknown
Elevation
Unknown
Doppler factor
Unknown
Orbital elements
Apogee altitude
1,501.365 km
Perigee altitude
1,465.181 km
Semi-major axis
7,861.41 km
Eccentricity
0.0023
Inclination
102.1386°
RAAN
287.1136°
Arg. of periapsis
290.0359°
True anomaly
190.90293°
Mean anomaly
190.9529°
Eccentric anomaly
190.9279°
Mean motion
3.11381 °/min
Orbital period
115.61 mins
BSTAR
0.00018332
Loading maneuver chart data...
Computing Atmospheric mass density...
Loading historical data...
Loading historical data...
Loading historical data...
Loading historical data...
Loading historical data...
Loading historical data...
Loading historical data...

Documentation

Showing up to 5 results
|